Starlink 6351

operational
NORAD ID: 57240 Int'l Des: 2023-094 Owner: SPXS Country: US Constellation: starlink
LEOCIRCULAR

Starlink 6351について

説明を読み込み中...

リアルタイム位置

3D地球を読み込み中...

次回通過

高度履歴

Altitude vs Time

uPlot chart will show altitude changes over time

軌道要素

1 57240U 23094Y 26062.02548833 .00001006 00000-0 89522-4 0 9992
2 57240 43.0035 53.8610 0001511 274.0923 85.9747 15.02538671146260
Epoch: Mar 3, 2026 • Age: 24 hours

現在のステータス

高度 569.6 km
速度 7.58 km/s
衛星直下点 -38.31°S, 123.68°E
打ち上げ日 Jul 7, 2023
運用期間 2.6 years
タイプ internet

技術仕様

分類 Payload
質量 305.00 kg
乾燥質量 290.00 kg
総質量 305.00 kg
長さ 0.20 m
直径 2.80 m
スパン 9.00 m
形状 Box + pan
製造者 SPXS
バスタイプ Starlink
フェーズステータス In Orbit
所有者/国 SPXS/US

大規模コンステレーション

Loading constellations...